CAPE
109 315 813 1271 1330 1350 1397 1250 1247 1251 1406 1623 1575 1679 1528 1500 1373 991 1042 982 1136 904 1183 1422 1339 1413 1358 1051 928 1024 996 715 1070 1139 1083 1152 1694 1018 1006 649 1518 1779 1644
211 724 886 1284 1292 1450 1364 1431 1554 1511 1560 1625 1759 1581 1673 1705 1676 1503 1643 1608 1614 1580 1683 1292 1214 1232 1002 798 829 741 556 707 1044 868 1277 1485 1478 1449 1660 1289 370 479 922
321 778 792 1069 1357 1405 1411 1332 1390 1280 1565 1569 1689 1689 1745 1645 1672 1691 1488 1385 1453 1560 1474 1353 1408 1211 1006 925 761 265 287 634 908 1261 689 560 1229 1495 1409 1416 1493 997 719
527 694 856 1080 1290 1172 1206 1403 1173 1377 1576 1719 1664 1853 1734 1484 1097 1302 1333 1373 1562 1534 1489 1430 1349 1235 1038 982 914 703 647 400 600 888 160 131 249 752 1420 1327 1407 1411 1035
589 825 1165 1300 1031 1490 1225 1400 1458 1458 1323 1200 1674 1556 1193 1166 939 1168 1287 1422 1551 1427 1295 1353 1285 957 779 493 948 755 467 209 250 183 107 25 54 423 1177 1489 1199 1271 1156
353 735 927 1088 981 1057 1319 1403 1526 1569 1136 1399 1612 1492 1419 1355 1474 1531 1502 1578 1648 1577 1484 1283 1523 1217 547 635 788 340 224 308 59 42 31 59 107 981 1013 1678 1656 1657 1402
476 800 624 964 1249 1409 1244 1306 1221 1162 1202 1451 1488 1402 1413 1757 1775 1542 1368 1299 1287 1278 1036 925 882 1059 1265 588 629 435 288 453 56 2 2 26 171 661 1167 1616 1644 1472 1692
128 672 713 1098 1240 1296 1209 1248 1284 1089 1137 1754 1428 1258 1344 1367 1327 1226 1027 939 972 970 805 506 608 929 1200 1026 633 427 645 678 126 38 24 18 140 479 1260 1736 1460 1801 1199
590 570 397 531 1015 962 626 728 666 690 1025 1053 769 858 947 1255 1370 1468 1496 1598 1447 1490 1144 1165 1321 1549 1826 1111 1219 91 608 596 18 6 29 37 70 360 720 1430 1514 1503 1228
361 3 669 375 243 1220 1424 1496 1312 897 1115 866 870 769 1100 1645 1489 1184 805 1010 1550 1124 1361 1234 1186 1200 1318 1263 810 45 528 643 40 42 2 0 4 156 483 910 1623 1390 1494
62 0 367 267 111 702 814 1045 889 798 1067 1319 1362 815 440 913 892 1027 1158 1594 1612 1366 1253 1207 1412 1117 1264 1321 1433 278 569 92 48 75 0 18 35 140 540 1409 1439 1407 1490
1 0 58 28 8 146 501 831 521 521 806 855 960 752 779 621 797 1323 1371 1571 1716 1634 1477 1673 462 1286 1393 809 808 953 273 1 0 0 0 60 178 305 567 1035 1714 1675 1583
0 0 0 26 79 112 190 374 226 387 674 862 918 560 394 715 840 1077 1186 1300 1359 1324 1361 1459 786 1029 1000 675 623 886 754 487 85 0 32 471 519 385 717 1299 1362 1298 1381
0 0 0 0 13 94 138 130 102 472 617 788 694 550 710 745 941 1255 1317 1376 1216 1219 1389 1364 1232 1014 758 367 625 597 719 469 428 235 156 465 433 545 1154 1151 1327 1464 1414
0 0 0 0 40 69 83 23 115 270 480 749 944 714 641 696 1101 1319 1422 1636 1695 1523 1370 1170 907 995 1164 977 690 774 805 707 585 597 295 368 754 1050 1405 1533 1518 1432 1203
0 0 0 3 44 91 119 66 182 259 520 649 579 111 296 736 1138 1300 1349 1283 1239 1490 1578 1587 1395 1098 650 803 730 937 929 990 974 849 427 495 1288 1241 1364 1592 1387 907 791
0 0 5 28 54 177 231 223 363 422 436 429 850 241 311 968 1272 1490 1559 1581 1365 1364 1303 1272 668 662 353 324 421 831 776 447 846 918 604 780 1274 1335 1284 731 750 705 601
4 0 0 27 20 144 327 289 381 606 480 495 998 1090 847 774 1325 1542 1679 1683 1298 1212 1148 1273 1065 214 12 0 70 380 504 396 524 896 956 1181 1148 1037 841 590 384 505 450
18 0 14 13 0 245 298 199 514 838 553 474 896 851 771 919 1720 1805 1825 1449 1267 1215 703 401 47 23 0 0 15 401 781 947 1000 1084 1003 1175 833 350 225 633 275 367 511
22 12 20 2 11 402 277 334 634 470 398 620 729 952 968 833 1680 1685 1732 1650 1416 1249 585 124 0 0 0 0 0 94 250 700 775 830 1037 851 415 0 7 304 328 407 381
3 40 78 0 155 296 365 403 543 379 481 699 641 920 738 507 1143 1397 1246 1384 1495 1205 700 514 1 0 0 0 0 74 0 0 22 59 285 438 184 0 0 3 224 165 585
0 37 77 5 96 127 223 305 496 462 211 377 680 739 551 507 779 1371 1255 1328 1512 1326 692 124 127 0 0 0 0 0 8 2 0 0 0 0 0 0 0 0 98 176 132
0 0 0 25 0 33 143 322 510 430 348 576 624 461 546 563 500 1165 1312 1364 1528 1305 877 314 54 0 0 0 0 0 0 0 0 0 0 0 0 0 0 0 2 119 1
0 0 0 12 0 23 93 313 422 375 330 357 537 316 284 455 405 787 1266 1390 1485 1326 1067 532 2 0 0 0 0 0 0 0 0 0 0 0 0 0 0 0 0 0 0
0 0 0 8 0 88 65 247 371 301 225 205 307 264 147 220 478 556 1096 1379 1517 1436 1127 257 0 0 0 0 0 0 0 0 0 0 0 0 0 0 0 0 0 0 0
0 0 0 0 0 61 46 136 326 288 289 266 310 291 208 112 265 463 827 1230 1551 1504 1234 238 0 0 0 0 0 0 0 0 0 0 0 0 0 0 0 0 0 0 0
CIN
-42 -25 -2 0 0 0 0 -1 -1 0 0 0 0 0 0 0 0 -7 -2 -18 -11 -14 -3 0 -5 -4 -3 -18 -22 -20 -20 -30 -13 -11 -9 -5 0 -4 -6 -47 -1 0 -1
-63 -5 -2 0 0 0 -1 0 0 -1 0 0 0 0 0 0 0 0 0 0 0 0 0 -4 -14 -15 -46 -65 -64 -66 -64 -44 -18 -26 -6 0 0 -2 0 0 -68 -70 -26
-49 -3 -4 0 0 0 -1 0 0 0 0 0 0 0 0 0 0 0 0 -2 0 0 0 -3 -4 -22 -48 -70 -86 -119 -95 -52 -33 -18 -52 -72 -25 -5 -3 -1 0 -22 -36
-26 -8 -4 -1 0 0 0 0 0 0 0 0 0 0 0 0 0 0 0 0 -1 -1 -1 0 -3 -5 -19 -37 -53 -68 -67 -75 -53 -46 -125 -132 -94 -39 -3 -4 -1 0 -5
-13 -4 0 0 -1 0 0 0 0 0 0 -1 0 0 -3 -5 -13 -3 -6 -3 -1 -4 -1 -2 -8 -31 -44 -59 -31 -47 -65 -99 -100 -119 -143 -173 -138 -67 -18 -3 -5 -2 -2
-45 -3 0 0 0 0 0 0 0 0 -1 0 0 0 0 -6 -7 -2 -4 -1 0 0 -3 -5 -1 -20 -65 -44 -37 -59 -59 -60 -175 -221 -178 -162 -149 -39 -21 0 0 0 -2
-29 -1 -15 0 0 -1 0 0 0 -2 -4 -2 -3 -12 -14 0 0 -2 -15 -12 -13 -9 -26 -45 -63 -53 -24 -44 -22 -33 -43 -29 -134 -184 -256 -155 -146 -67 -21 0 0 0 0
-95 -13 -14 0 0 0 0 0 -4 -19 -16 0 -8 -24 -19 -21 -17 -26 -34 -37 -38 -26 -44 -81 -84 -68 -41 -3 -17 -26 -24 -13 -104 -191 -257 -285 -186 -97 -15 0 -3 -1 -3
-15 -24 -65 -35 -3 -5 -33 -32 -47 -53 -22 -18 -30 -33 -29 -21 -22 -19 -20 -20 -24 -17 -23 -27 -28 -33 -19 -12 -16 -38 -36 -40 -207 -284 -313 -323 -248 -98 -42 -4 -2 -3 -2
-33 -44 -30 -67 -95 -3 0 0 -8 -31 -14 -20 -27 -32 -25 -18 -30 -53 -71 -68 -33 -19 -23 -50 -48 -54 -40 -40 -73 -217 -49 -58 -225 -223 -121 0 -25 -157 -77 -36 0 -2 -1
-133 0 -77 -98 -134 -46 -42 -31 -34 -32 -24 -15 -20 -41 -107 -69 -87 -74 -68 -47 -10 -16 -26 -51 -56 -70 -70 -79 -62 -146 -106 -185 -229 -206 0 -205 -227 -179 -94 -37 -22 -13 -6
-46 0 -196 -207 -148 -145 -63 -45 -71 -72 -54 -53 -60 -76 -86 -98 -95 -69 -63 -54 -37 -33 -26 -37 -112 -76 -73 -106 -131 -122 -198 -45 0 0 0 -244 -198 -149 -97 -48 -9 -8 -7
0 0 0 -210 -148 -146 -105 -81 -99 -90 -76 -73 -79 -92 -118 -92 -90 -77 -64 -60 -62 -62 -59 -68 -103 -94 -98 -115 -115 -114 -140 -160 -231 0 -262 -141 -129 -126 -82 -27 -29 -23 -17
0 0 0 0 -188 -151 -159 -133 -131 -72 -73 -66 -89 -111 -90 -74 -53 -49 -47 -56 -65 -67 -53 -65 -80 -97 -118 -136 -115 -111 -109 -133 -139 -169 -187 -129 -113 -95 -45 -29 -23 -20 -18
0 0 0 0 -172 -155 -151 -217 -127 -85 -67 -65 -75 -106 -109 -88 -69 -64 -59 -64 -69 -75 -61 -68 -82 -83 -97 -117 -124 -116 -101 -105 -111 -109 -133 -121 -84 -60 -39 -25 -23 -28 -29
0 0 0 -154 -177 -147 -140 -174 -120 -97 -68 -74 -96 -179 -161 -106 -76 -53 -51 -50 -66 -69 -71 -71 -60 -73 -89 -106 -113 -98 -93 -84 -84 -89 -123 -120 -61 -46 -25 -14 -20 -33 -30
0 0 -160 -161 -150 -116 -99 -113 -91 -90 -78 -90 -68 -142 -179 -95 -60 -51 -48 -36 -58 -64 -65 -63 -120 -120 -135 -142 -136 -113 -115 -130 -87 -84 -95 -80 -56 -34 -27 -35 -38 -40 -50
-91 0 0 -142 -129 -107 -84 -82 -85 -60 -79 -85 -66 -73 -73 -82 -47 -42 -35 -40 -78 -101 -109 -86 -111 -223 -370 0 -269 -145 -138 -155 -133 -88 -83 -60 -53 -36 -42 -47 -94 -67 -74
-107 0 -114 -144 0 -84 -83 -105 -68 -53 -75 -84 -59 -64 -70 -65 -48 -33 -37 -55 -88 -105 -178 -218 -345 -149 0 0 -306 -210 -153 -114 -101 -83 -71 -55 -54 -119 -172 -63 -163 -112 -54
-98 -71 -97 -39 -39 -65 -91 -89 -69 -78 -97 -86 -68 -55 -54 -69 -46 -40 -46 -49 -81 -100 -191 -290 0 0 0 0 0 -301 -275 -194 -154 -111 -64 -53 -119 0 -55 -120 -113 -85 -74
-71 -194 -186 0 -93 -84 -80 -59 -56 -68 -74 -68 -87 -63 -85 -124 -63 -49 -61 -63 -67 -86 -157 -185 -47 0 0 0 0 -299 0 -1 -389 -329 -188 -107 -177 0 0 -328 -159 -190 -41
0 -190 -205 -33 -118 -103 -72 -70 -60 -78 -134 -129 -109 -98 -129 -148 -104 -44 -68 -77 -71 -81 -153 -271 -272 0 0 0 0 0 -101 -61 0 0 0 0 0 0 0 0 -265 -224 -237
0 0 0 -180 0 -167 -122 -80 -79 -119 -135 -117 -124 -148 -139 -130 -143 -59 -67 -74 -63 -78 -113 -206 -329 0 0 0 0 0 0 0 0 0 0 0 0 0 0 0 -7 -299 -6
0 0 0 -210 0 -183 -208 -101 -82 -101 -103 -130 -119 -176 -190 -156 -160 -102 -74 -67 -63 -86 -113 -195 -9 0 0 0 0 0 0 0 0 0 0 0 0 0 0 0 0 0 0
0 0 0 -195 0 -203 -260 -151 -109 -125 -169 -183 -186 -191 -248 -215 -158 -139 -94 -78 -58 -68 -114 -275 0 0 0 0 0 0 0 0 0 0 0 0 0 0 0 0 0 0 0
0 0 -1 0 0 -237 -278 -221 -146 -144 -138 -174 -176 -183 -228 -280 -207 -170 -137 -98 -63 -68 -96 -309 0 0 0 0 0 0 0 0 0 0 0 0 0 0 0 0 0 0 0
Wind_Speed
25 24 25 24 25 24 24 24 24 24 24 24 23 23 22 24 24 24 23 23 23 23 22 22 21 21 20 20 21 17 9 8 8 7 7 8 7 6 7 9 10 12 12
23 23 23 23 24 24 24 24 24 24 24 24 24 23 23 23 23 24 24 24 24 23 22 21 21 20 21 20 20 22 17 12 8 8 7 7 8 8 8 9 10 11 11
22 23 23 23 23 24 24 24 24 24 24 24 24 23 22 22 20 22 24 24 23 23 22 21 21 14 13 19 16 20 21 13 12 9 8 8 8 9 10 12 10 11 12
23 23 24 23 23 23 23 23 24 24 24 24 24 23 22 23 24 21 23 23 23 23 22 21 14 11 11 11 11 11 10 10 10 10 8 9 9 10 11 10 10 11 12
23 24 24 23 23 23 24 24 24 24 24 24 24 24 23 23 24 23 22 23 22 21 21 18 17 16 14 13 15 14 13 12 11 13 8 9 10 12 11 10 10 11 12
23 24 23 23 23 23 24 24 24 24 24 24 23 23 23 23 23 22 20 19 19 18 18 17 15 14 12 11 13 16 15 11 10 9 11 10 12 13 11 10 11 11 12
23 23 23 23 23 24 24 24 24 24 23 23 22 22 23 21 19 19 19 18 17 16 15 15 14 13 11 9 10 12 18 12 13 11 10 12 11 14 13 11 11 12 12
23 22 23 22 23 24 24 24 23 23 23 22 21 21 21 20 19 17 17 16 16 15 14 14 14 12 11 13 10 12 20 16 14 18 17 17 16 5 10 12 12 12 14
23 22 23 22 24 24 24 24 23 22 22 20 19 19 19 17 17 16 14 14 14 14 13 14 15 14 12 14 16 12 20 21 18 13 21 19 17 16 15 13 15 16 15
23 23 23 24 24 24 23 23 22 21 19 18 16 16 16 15 15 15 14 15 13 15 13 14 16 15 14 17 21 19 20 22 20 17 20 19 17 17 17 16 16 16 16
24 25 24 25 24 24 23 21 20 19 17 17 17 15 18 17 16 16 15 15 14 16 16 17 17 16 16 18 21 22 22 20 18 17 18 17 17 16 15 15 14 15 14
26 25 25 25 25 24 22 21 20 17 17 17 16 16 18 17 16 16 15 14 15 15 18 18 17 17 16 17 17 19 20 18 17 17 16 17 16 15 15 14 14 14 12
26 26 26 26 25 24 22 21 20 17 16 16 17 19 19 18 15 14 14 15 15 16 17 17 17 17 17 17 16 16 16 15 15 16 16 15 15 15 14 13 14 13 11
27 27 27 27 26 24 22 21 19 18 17 17 17 17 18 17 14 13 14 13 12 14 16 15 15 17 17 16 16 15 16 14 15 15 16 15 15 15 14 14 16 17 19
27 28 28 27 26 24 22 21 19 18 19 17 17 17 18 16 15 15 14 12 10 14 13 15 17 16 15 15 15 15 15 15 15 14 15 14 14 15 14 17 21 22 22
28 29 29 28 26 24 22 20 20 20 21 18 17 17 15 14 16 15 13 11 10 13 12 13 16 15 14 14 15 16 15 15 15 15 16 14 13 15 16 20 20 21 22
29 29 30 28 26 25 23 22 22 22 22 20 20 20 17 16 13 13 14 12 10 11 12 12 12 12 13 14 13 18 17 16 16 17 16 15 15 15 18 18 19 20 20
31 30 29 27 27 26 24 25 23 21 23 23 22 21 18 14 13 16 15 15 11 8 10 12 11 10 10 14 16 17 15 18 17 17 16 15 15 15 17 17 18 18 18
33 32 30 28 28 27 26 26 24 22 24 22 20 20 18 16 15 14 16 15 14 11 11 11 7 13 11 16 19 20 20 19 18 17 16 16 15 15 15 16 16 17 17
34 32 30 29 29 28 27 27 24 25 23 23 22 20 19 18 18 16 15 14 14 15 15 9 3 7 26 24 23 22 22 20 19 17 16 15 14 14 14 14 14 15 16
36 34 31 29 30 30 29 29 27 27 25 24 23 21 20 18 18 18 17 15 17 16 15 16 18 21 23 19 21 23 23 22 21 18 16 14 12 12 13 12 13 13 14
38 36 33 30 30 31 31 30 28 28 26 24 24 22 20 18 18 19 18 18 19 18 18 17 16 17 19 20 20 19 18 17 21 20 18 14 12 10 11 12 12 13 14
39 36 36 33 32 32 33 32 30 28 26 25 26 22 21 19 19 19 18 18 19 18 19 19 18 18 18 21 19 17 18 14 15 16 19 20 18 13 11 12 12 12 12
41 39 37 35 33 34 33 34 33 32 30 27 26 23 20 19 19 18 17 18 19 19 19 19 18 18 17 17 18 21 19 17 16 15 14 17 16 17 13 13 13 12 11
36 41 40 37 35 35 35 36 34 33 30 27 26 24 21 19 18 16 16 16 17 18 19 20 20 20 19 18 16 16 17 19 18 17 16 17 20 21 17 16 15 14 12
32 31 42 39 38 35 36 36 36 34 32 30 27 24 22 21 18 17 15 15 16 17 18 19 20 21 21 20 19 18 17 17 17 18 20 20 21 21 19 17 16 16 15
Wind_Direction
128 108 105 93 93 91 84 78 81 78 78 74 73 74 67 74 81 83 89 85 91 92 83 73 72 65 49 58 79 60 331 314 335 348 298 274 328 344 339 332 346 4 357
105 107 103 95 96 92 89 83 81 78 78 76 74 70 69 71 75 81 83 88 87 88 81 71 71 54 68 59 63 91 54 24 335 348 313 328 319 295 319 337 332 340 338
101 107 105 103 99 92 91 86 83 81 84 77 74 64 61 60 54 68 81 83 86 91 88 82 84 28 6 53 35 79 113 23 24 10 347 319 311 287 288 283 319 328 324
99 102 110 106 101 94 94 91 90 91 90 85 78 73 70 75 91 66 83 89 96 100 98 102 183 222 250 300 300 295 294 316 347 7 336 320 312 313 311 330 318 316 334
96 104 107 98 96 95 98 98 93 96 97 101 97 87 74 77 97 79 78 110 119 116 113 138 146 155 174 198 319 289 274 281 304 49 307 305 304 299 323 355 341 333 338
101 107 100 98 96 103 104 105 105 106 111 111 107 107 108 122 112 125 137 137 133 130 131 130 144 158 169 204 226 231 272 317 318 289 261 297 335 325 352 353 326 335 344
104 101 102 102 100 104 107 110 116 115 116 109 116 114 120 136 144 139 138 143 144 140 145 150 153 151 156 180 218 168 223 280 298 289 305 252 335 6 22 355 359 347 350
106 103 103 103 103 110 115 120 119 113 120 126 125 121 124 130 135 142 141 145 150 158 161 163 155 152 140 122 158 171 168 182 230 228 227 199 177 290 316 257 158 61 319
107 103 108 106 121 117 120 121 124 124 130 131 133 126 136 137 143 146 160 158 161 164 178 164 154 145 142 123 126 164 156 150 152 186 176 165 162 155 158 212 183 115 131
111 118 118 121 139 132 134 129 129 131 134 140 148 148 150 160 161 155 159 155 167 156 174 159 142 141 136 123 118 134 147 152 153 164 169 169 161 151 146 165 172 154 151
130 133 133 144 145 140 141 144 140 146 142 143 146 148 143 152 152 156 156 157 143 136 147 142 141 137 135 130 123 126 136 147 158 165 166 164 154 160 157 152 162 149 139
138 139 145 156 150 148 151 143 139 154 147 145 147 149 147 150 150 153 160 161 152 148 136 137 141 140 139 139 136 134 138 147 155 161 161 153 149 156 162 165 154 131 126
142 142 144 155 156 151 149 137 138 160 157 155 150 143 143 146 148 153 153 151 150 146 139 133 134 138 140 144 150 147 145 147 152 155 160 165 159 149 148 147 121 109 104
143 144 143 154 160 151 147 141 155 161 160 159 153 152 146 147 152 153 151 154 164 150 137 141 141 139 143 147 151 160 161 157 154 155 152 148 137 134 134 121 81 62 38
142 150 154 156 160 158 156 151 163 168 160 160 160 159 151 151 149 145 145 147 158 155 149 141 137 141 148 160 166 169 170 168 164 159 157 148 142 134 134 76 39 31 24
150 154 163 164 167 166 160 161 166 161 157 162 166 162 162 162 149 148 150 146 140 137 150 148 137 140 153 156 165 166 168 170 170 161 155 156 155 122 96 60 54 42 31
158 156 168 171 176 176 169 165 163 159 159 162 158 156 158 157 161 156 145 141 139 137 144 153 154 159 157 158 157 147 149 152 150 143 131 126 118 108 82 75 62 54 48
163 162 175 184 177 177 175 160 161 166 161 162 158 156 160 168 165 149 140 135 139 147 144 151 154 158 160 160 147 138 147 130 124 118 114 109 99 95 81 74 65 59 56
171 170 177 179 174 171 171 166 167 170 165 170 170 165 164 161 159 157 142 138 133 139 141 144 170 133 145 141 117 104 99 96 98 101 97 93 89 89 79 73 67 63 61
182 177 178 175 171 168 175 172 175 169 175 171 170 167 167 155 147 149 145 143 135 122 125 153 223 8 53 70 70 57 60 80 77 85 87 87 88 78 74 72 67 64 60
191 182 172 168 166 163 172 173 173 167 167 170 168 167 161 157 145 137 132 132 125 119 118 122 113 94 81 108 95 58 40 47 56 67 83 86 88 78 68 68 67 64 58
194 185 178 169 165 167 170 176 179 173 173 177 167 161 159 158 151 134 128 122 113 104 104 106 111 108 90 69 81 79 77 77 54 56 59 71 74 75 63 62 65 61 55
198 185 181 174 170 172 172 176 183 180 178 175 166 167 163 156 151 139 131 124 115 104 92 89 93 89 87 55 58 66 64 80 70 69 53 45 47 55 60 56 61 64 60
204 194 181 175 174 174 169 172 173 176 172 177 173 171 170 164 156 148 139 121 108 100 91 89 92 94 97 96 85 57 59 64 64 63 66 51 49 43 54 55 60 64 61
223 203 183 178 179 175 172 175 176 182 185 187 177 176 177 177 175 164 145 130 109 100 90 85 83 82 89 92 95 93 83 68 64 55 53 48 42 39 51 57 60 60 61
229 226 189 180 183 177 173 177 180 180 184 185 182 184 188 184 184 172 152 142 120 104 92 84 82 79 81 84 89 90 85 74 67 57 46 43 42 45 52 57 57 52 52